Retour au catalogue

METEOR M2-2

ActifMétéoSSO
NORAD 44387·PAYLOAD·🇷🇺 Russia

Lancé Jul 5, 2019 depuis Vostochny Cosmodrome

Loading…

Prochains Passages (prochaines 24 heures)

TLE

FraisSource: Space-Track

Époque: Sep 14, 2026, 14:19 UTC

1 44387U 19038A   26257.59714525  .00000051  00000-0  41740-4 0  9993
2 44387  98.9239 246.2416 0002195 100.7998 259.3427 14.24385622374029

Suivez METEOR M2-2 en temps réel avec AllMySat

Download on the App Store